Retour au catalogue

LDPE-1

LostCommunicationsGEO
NORAD 49818·PAYLOAD·🇺🇸 United States

Lancé Dec 7, 2021 depuis Cape Canaveral Space Force Station

Loading…

TLE

FraisSource: Space-Track

Époque: Sep 12, 2026, 14:03 UTC

1 49818U 21118B   26255.58601860  .00000002  00000-0  00000+0 0  9998
2 49818   5.8744  62.4420 0014804 192.9106 340.7806  0.99069964   485

Suivez LDPE-1 en temps réel avec AllMySat

Download on the App Store